^^
Saratoga-Weather Station Historical Data
Daily Summary for May 8, 2021 Units:  Metric    English   Both
Daily Weekly Monthly Yearly Custom
  High: Low: Average:
Temperature: 2.1 °C -0.1 °C 1 °C
Dew Point: 0.3 °C -1.8 °C -0.7 °C
Humidity: 93% 82% 89%
Wind Speed: 17.7km/h 0km/h 5.8km/h
Wind Gust: 24.1km/h - -
Wind- - West
Pressure: 1019.0 hPa 1013.9 hPa -
Precipitation: 0.0 mm    
Historical Graphs
 
 
Tabular Data for May 8, 2021
Time Temperature Dew Point Pressure Wind Wind Speed Wind Gust Humidity Rainfall Rate (Hourly) solar
00:04 1.2 °C 0.2 °C 1014.2 hPa West 3.2 km/h 12.9 km/h 93% 0.0 mm 0 W/m2
00:09 1.2 °C 0.2 °C 1014.2 hPa West 9.7 km/h 19.3 km/h 93% 0.0 mm 0 W/m2
00:14 1.2 °C 0.2 °C 1014.2 hPa West 9.7 km/h 12.9 km/h 93% 0.0 mm 0 W/m2
00:19 1.2 °C 0.2 °C 1014.2 hPa WNW 3.2 km/h 19.3 km/h 93% 0.0 mm 0 W/m2
00:24 1.2 °C 0.2 °C 1014.2 hPa WSW 11.1 km/h 12.9 km/h 93% 0.0 mm 0 W/m2
00:29 1.2 °C 0.2 °C 1014.2 hPa West 6.4 km/h 16.1 km/h 93% 0.0 mm 0 W/m2
00:34 1.3 °C 0.3 °C 1014.2 hPa West 9.7 km/h 14.5 km/h 93% 0.0 mm 0 W/m2
00:39 1.2 °C 0.2 °C 1013.9 hPa West 4.7 km/h 12.9 km/h 93% 0.0 mm 0 W/m2
00:44 1.2 °C 0.2 °C 1013.9 hPa WSW 6.4 km/h 12.9 km/h 93% 0.0 mm 0 W/m2
00:49 1.3 °C 0.3 °C 1013.9 hPa West 11.1 km/h 14.5 km/h 93% 0.0 mm 0 W/m2
00:54 1.3 °C 0.3 °C 1013.9 hPa WNW 11.1 km/h 14.5 km/h 93% 0.0 mm 0 W/m2
00:59 1.3 °C 0.3 °C 1013.9 hPa West 3.2 km/h 11.3 km/h 93% 0.0 mm 0 W/m2
01:04 1.3 °C 0.3 °C 1013.9 hPa SW 6.4 km/h 11.3 km/h 93% 0.0 mm 0 W/m2
01:09 1.3 °C 0.3 °C 1013.9 hPa West 4.7 km/h 9.7 km/h 93% 0.0 mm 0 W/m2
01:14 1.3 °C 0.3 °C 1013.9 hPa WNW 7.9 km/h 12.9 km/h 93% 0.0 mm 0 W/m2
01:19 1.3 °C 0.3 °C 1013.9 hPa West 6.4 km/h 9.7 km/h 93% 0.0 mm 0 W/m2
01:24 1.3 °C 0.3 °C 1013.9 hPa West 6.4 km/h 12.9 km/h 93% 0.0 mm 0 W/m2
01:29 1.2 °C 0.2 °C 1013.9 hPa SW 6.4 km/h 12.9 km/h 93% 0.0 mm 0 W/m2
01:34 1.3 °C 0.3 °C 1013.9 hPa West 11.1 km/h 12.9 km/h 93% 0.0 mm 0 W/m2
01:39 1.3 °C 0.3 °C 1013.9 hPa West 16.3 km/h 16.1 km/h 93% 0.0 mm 0 W/m2
01:44 1.3 °C 0.3 °C 1013.9 hPa WNW 11.1 km/h 17.7 km/h 93% 0.0 mm 0 W/m2
01:49 1.3 °C 0.3 °C 1013.9 hPa WSW 4.7 km/h 8 km/h 93% 0.0 mm 0 W/m2
01:54 1.3 °C 0.3 °C 1013.9 hPa WNW 4.7 km/h 17.7 km/h 93% 0.0 mm 0 W/m2
01:59 1.3 °C 0.3 °C 1013.9 hPa WNW 6.4 km/h 8 km/h 93% 0.0 mm 0 W/m2
02:04 1.3 °C 0.3 °C 1013.9 hPa West 11.1 km/h 11.3 km/h 93% 0.0 mm 0 W/m2
02:09 1.3 °C 0.3 °C 1014.2 hPa WNW 6.4 km/h 12.9 km/h 93% 0.0 mm 0 W/m2
02:14 1.3 °C 0.3 °C 1014.2 hPa West 9.7 km/h 12.9 km/h 93% 0.0 mm 0 W/m2
02:19 1.3 °C 0.3 °C 1013.9 hPa West 6.4 km/h 14.5 km/h 93% 0.0 mm 0 W/m2
02:24 1.3 °C 0.3 °C 1014.2 hPa SSW 6.4 km/h 16.1 km/h 93% 0.0 mm 0 W/m2
02:29 1.3 °C 0.3 °C 1014.2 hPa WNW 6.4 km/h 14.5 km/h 93% 0.0 mm 0 W/m2
02:34 1.3 °C 0.3 °C 1013.9 hPa WSW 6.4 km/h 16.1 km/h 93% 0.0 mm 0 W/m2
02:39 1.3 °C 0.3 °C 1014.2 hPa West 6.4 km/h 12.9 km/h 93% 0.0 mm 0 W/m2
02:44 1.3 °C 0.3 °C 1014.2 hPa West 3.2 km/h 11.3 km/h 93% 0.0 mm 0 W/m2
02:49 1.3 °C 0.3 °C 1014.2 hPa West 4.7 km/h 14.5 km/h 93% 0.0 mm 0 W/m2
02:54 1.2 °C 0.2 °C 1014.2 hPa West 4.7 km/h 8 km/h 93% 0.0 mm 0 W/m2
02:59 1.2 °C 0.2 °C 1014.2 hPa NW 11.1 km/h 14.5 km/h 93% 0.0 mm 0 W/m2
03:04 1.3 °C 0.3 °C 1014.2 hPa West 14.3 km/h 14.5 km/h 93% 0.0 mm 0 W/m2
03:09 1.3 °C 0.3 °C 1014.2 hPa WNW 3.2 km/h 9.7 km/h 93% 0.0 mm 0 W/m2
03:14 1.3 °C 0.3 °C 1014.6 hPa WNW 6.4 km/h 16.1 km/h 93% 0.0 mm 0 W/m2
03:19 1.3 °C 0.3 °C 1014.2 hPa West 9.7 km/h 16.1 km/h 93% 0.0 mm 0 W/m2
03:24 1.3 °C 0.3 °C 1014.2 hPa SW 4.7 km/h 16.1 km/h 93% 0.0 mm 0 W/m2
03:29 1.3 °C 0.1 °C 1014.6 hPa West 14.3 km/h 16.1 km/h 92% 0.0 mm 0 W/m2
03:34 1.3 °C 0.1 °C 1014.6 hPa WSW 11.1 km/h 17.7 km/h 92% 0.0 mm 0 W/m2
03:39 1.3 °C 0.1 °C 1014.6 hPa WSW 11.1 km/h 12.9 km/h 92% 0.0 mm 0 W/m2
03:44 1.3 °C 0.1 °C 1014.6 hPa SW 7.9 km/h 17.7 km/h 92% 0.0 mm 0 W/m2
03:49 1.3 °C 0.1 °C 1014.6 hPa WNW 4.7 km/h 12.9 km/h 92% 0.0 mm 0 W/m2
03:54 1.3 °C 0.1 °C 1014.6 hPa WSW 4.7 km/h 14.5 km/h 92% 0.0 mm 0 W/m2
03:59 1.3 °C 0.1 °C 1014.6 hPa West 11.1 km/h 14.5 km/h 92% 0.0 mm 0 W/m2
04:04 1.3 °C 0.1 °C 1014.6 hPa West 3.2 km/h 17.7 km/h 92% 0.0 mm 0 W/m2
04:09 1.3 °C 0 °C 1014.6 hPa West 6.4 km/h 14.5 km/h 91% 0.0 mm 0 W/m2
04:14 1.3 °C 0 °C 1014.6 hPa WSW 6.4 km/h 17.7 km/h 91% 0.0 mm 0 W/m2
04:19 1.2 °C -0.1 °C 1014.6 hPa West 4.7 km/h 12.9 km/h 91% 0.0 mm 0 W/m2
04:24 1.2 °C -0.1 °C 1014.6 hPa West 13 km/h 20.9 km/h 91% 0.0 mm 0 W/m2
04:29 1.2 °C -0.1 °C 1014.6 hPa WNW 3.2 km/h 16.1 km/h 91% 0.0 mm 0 W/m2
04:34 1.1 °C -0.2 °C 1014.6 hPa WSW 4.7 km/h 20.9 km/h 91% 0.0 mm 0 W/m2
04:39 1.1 °C -0.2 °C 1014.6 hPa WNW 6.4 km/h 22.5 km/h 91% 0.0 mm 0 W/m2
04:44 1.1 °C -0.2 °C 1014.6 hPa West 9.7 km/h 14.5 km/h 91% 0.0 mm 0 W/m2
04:49 1 °C -0.3 °C 1014.6 hPa WSW 6.4 km/h 17.7 km/h 91% 0.0 mm 0 W/m2
04:55 1 °C -0.3 °C 1014.6 hPa West 9.7 km/h 16.1 km/h 91% 0.0 mm 0 W/m2
05:00 0.9 °C -0.4 °C 1014.6 hPa West 11.1 km/h 16.1 km/h 91% 0.0 mm 0 W/m2
05:05 0.9 °C -0.4 °C 1014.6 hPa West 4.7 km/h 16.1 km/h 91% 0.0 mm 0 W/m2
05:10 0.9 °C -0.4 °C 1014.6 hPa West 6.4 km/h 14.5 km/h 91% 0.0 mm 0 W/m2
05:15 0.9 °C -0.4 °C 1014.6 hPa SW 7.9 km/h 12.9 km/h 91% 0.0 mm 0 W/m2
05:20 0.9 °C -0.4 °C 1014.6 hPa WNW 14.3 km/h 14.5 km/h 91% 0.0 mm 0 W/m2
05:25 0.9 °C -0.6 °C 1014.6 hPa WNW 6.4 km/h 16.1 km/h 90% 0.0 mm 0 W/m2
05:30 0.8 °C -0.7 °C 1014.6 hPa WNW 13 km/h 16.1 km/h 90% 0.0 mm 0 W/m2
05:35 0.8 °C -0.7 °C 1014.2 hPa NW 14.3 km/h 16.1 km/h 90% 0.0 mm 0 W/m2
05:40 0.8 °C -0.7 °C 1014.6 hPa West 4.7 km/h 12.9 km/h 90% 0.0 mm 0 W/m2
05:45 0.8 °C -0.7 °C 1014.6 hPa West 3.2 km/h 12.9 km/h 90% 0.0 mm 0 W/m2
05:50 0.8 °C -0.7 °C 1014.6 hPa WSW 6.4 km/h 11.3 km/h 90% 0.0 mm 0 W/m2
05:55 0.8 °C -0.7 °C 1014.6 hPa West 9.7 km/h 17.7 km/h 90% 0.0 mm 0 W/m2
06:00 0.8 °C -0.7 °C 1014.6 hPa NW 9.7 km/h 12.9 km/h 90% 0.0 mm 0 W/m2
06:05 0.7 °C -0.9 °C 1014.6 hPa West 9.7 km/h 17.7 km/h 89% 0.0 mm 0 W/m2
06:10 0.7 °C -0.9 °C 1014.6 hPa WSW 4.7 km/h 11.3 km/h 89% 0.0 mm 0 W/m2
06:15 0.7 °C -0.9 °C 1014.6 hPa West 6.4 km/h 14.5 km/h 89% 0.0 mm 0 W/m2
06:20 0.7 °C -0.9 °C 1014.6 hPa West 13 km/h 12.9 km/h 89% 0.0 mm 0 W/m2
06:25 0.7 °C -1.1 °C 1014.6 hPa WNW 11.1 km/h 14.5 km/h 88% 0.0 mm 0 W/m2
06:30 0.6 °C -1.2 °C 1014.6 hPa West 4.7 km/h 9.7 km/h 88% 0.0 mm 0 W/m2
06:35 0.6 °C -1.2 °C 1014.6 hPa WSW 7.9 km/h 16.1 km/h 88% 0.0 mm 0 W/m2
06:40 0.6 °C -1.2 °C 1014.6 hPa West 13 km/h 16.1 km/h 88% 0.0 mm 0 W/m2
06:45 0.6 °C -1.2 °C 1014.6 hPa WNW 13 km/h 12.9 km/h 88% 0.0 mm 0 W/m2
06:50 0.6 °C -1.2 °C 1014.6 hPa WNW 6.4 km/h 11.3 km/h 88% 0.0 mm 0 W/m2
06:55 0.6 °C -1.2 °C 1014.6 hPa WNW 4.7 km/h 9.7 km/h 88% 0.0 mm 0 W/m2
07:00 0.5 °C -1.3 °C 1014.6 hPa West 9.7 km/h 11.3 km/h 88% 0.0 mm 0 W/m2
07:05 0.5 °C -1.1 °C 1014.6 hPa WNW 6.4 km/h 24.1 km/h 89% 0.0 mm 0 W/m2
07:10 0.5 °C -1.1 °C 1014.6 hPa WNW 4.7 km/h 12.9 km/h 89% 0.0 mm 0 W/m2
07:15 0.5 °C -1.1 °C 1014.6 hPa West 3.2 km/h 24.1 km/h 89% 0.0 mm 0 W/m2
07:20 0.5 °C -1.3 °C 1014.6 hPa West 4.7 km/h 14.5 km/h 88% 0.0 mm 0 W/m2
07:25 0.5 °C -1.3 °C 1014.6 hPa NNW 3.2 km/h 8 km/h 88% 0.0 mm 0 W/m2
07:30 0.4 °C -1.2 °C 1014.9 hPa WSW 3.2 km/h 16.1 km/h 89% 0.0 mm 0 W/m2
07:35 0.4 °C -1.2 °C 1014.9 hPa West 6.4 km/h 14.5 km/h 89% 0.0 mm 0 W/m2
07:40 0.4 °C -1.4 °C 1014.9 hPa WSW 6.4 km/h 16.1 km/h 88% 0.0 mm 0 W/m2
07:45 0.4 °C -1.4 °C 1014.9 hPa West 9.7 km/h 11.3 km/h 88% 0.0 mm 0 W/m2
07:50 0.4 °C -1.4 °C 1014.9 hPa WNW 4.7 km/h 12.9 km/h 88% 0.0 mm 0 W/m2
07:55 0.4 °C -1.4 °C 1014.9 hPa West 3.2 km/h 9.7 km/h 88% 0.0 mm 0 W/m2
08:00 0.4 °C -1.4 °C 1014.9 hPa WSW 3.2 km/h 4.8 km/h 88% 0.0 mm 0 W/m2
08:05 0.3 °C -1.3 °C 1014.9 hPa West 6.4 km/h 12.9 km/h 89% 0.0 mm 0 W/m2
08:10 0.3 °C -1.3 °C 1014.9 hPa SW 6.4 km/h 9.7 km/h 89% 0.0 mm 0 W/m2
08:15 0.3 °C -1.3 °C 1014.9 hPa NNW 7.9 km/h 11.3 km/h 89% 0.0 mm 0 W/m2
08:20 0.3 °C -1.3 °C 1015.2 hPa West 9.7 km/h 11.3 km/h 89% 0.0 mm 0 W/m2
08:25 0.3 °C -1.3 °C 1015.2 hPa WSW 9.7 km/h 14.5 km/h 89% 0.0 mm 0 W/m2
08:30 0.2 °C -1.6 °C 1015.2 hPa WNW 14.3 km/h 17.7 km/h 88% 0.0 mm 0 W/m2
08:35 0.2 °C -1.6 °C 1015.2 hPa West 4.7 km/h 14.5 km/h 88% 0.0 mm 5 W/m2
08:40 0.2 °C -1.6 °C 1015.2 hPa WNW 6.4 km/h 11.3 km/h 88% 0.0 mm 7 W/m2
08:45 0.2 °C -1.6 °C 1015.2 hPa West 6.4 km/h 9.7 km/h 88% 0.0 mm 11 W/m2
08:50 0.1 °C -1.5 °C 1015.2 hPa WSW 7.9 km/h 9.7 km/h 89% 0.0 mm 14 W/m2
08:55 0.1 °C -1.5 °C 1015.6 hPa West 4.7 km/h 4.8 km/h 89% 0.0 mm 21 W/m2
09:00 0.1 °C -1.5 °C 1015.6 hPa NW 3.2 km/h 6.4 km/h 89% 0.0 mm 21 W/m2
09:05 0.1 °C -1.5 °C 1015.6 hPa West 4.7 km/h 12.9 km/h 89% 0.0 mm 25 W/m2
09:10 0.1 °C -1.5 °C 1015.6 hPa West 6.4 km/h 11.3 km/h 89% 0.0 mm 28 W/m2
09:15 0.1 °C -1.5 °C 1015.6 hPa WNW 3.2 km/h 17.7 km/h 89% 0.0 mm 40 W/m2
09:21 0.1 °C -1.5 °C 1015.9 hPa NW 1.4 km/h 6.4 km/h 89% 0.0 mm 47 W/m2
09:26 0.1 °C -1.5 °C 1015.9 hPa West 1.4 km/h 17.7 km/h 89% 0.0 mm 44 W/m2
09:31 0.1 °C -1.5 °C 1015.9 hPa SW 3.2 km/h 6.4 km/h 89% 0.0 mm 35 W/m2
09:36 0.1 °C -1.5 °C 1015.9 hPa WNW 1.4 km/h 3.2 km/h 89% 0.0 mm 42 W/m2
09:41 0.1 °C -1.5 °C 1015.9 hPa Calm   9.7 km/h 89% 0.0 mm 42 W/m2
09:46 0.1 °C -1.5 °C 1015.9 hPa WNW 4.7 km/h 6.4 km/h 89% 0.0 mm 56 W/m2
09:51 0.1 °C -1.5 °C 1016.3 hPa WNW 1.4 km/h 4.8 km/h 89% 0.0 mm 49 W/m2
09:56 0.1 °C -1.5 °C 1016.3 hPa NW 3.2 km/h 9.7 km/h 89% 0.0 mm 44 W/m2
10:01 0.1 °C -1.5 °C 1016.3 hPa WNW 6.4 km/h 14.5 km/h 89% 0.0 mm 81 W/m2
10:06 0.1 °C -1.5 °C 1016.3 hPa NW 6.4 km/h 11.3 km/h 89% 0.0 mm 56 W/m2
10:11 0.1 °C -1.5 °C 1016.3 hPa West 4.7 km/h 8 km/h 89% 0.0 mm 44 W/m2
10:16 0.1 °C -1.5 °C 1016.3 hPa West 9.7 km/h 11.3 km/h 89% 0.0 mm 51 W/m2
10:21 -0.1 °C -1.8 °C 1016.3 hPa West 4.7 km/h 12.9 km/h 88% 0.0 mm 51 W/m2
10:26 -0.1 °C -1.7 °C 1016.3 hPa WNW 4.7 km/h 14.5 km/h 89% 0.0 mm 62 W/m2
10:31 -0.1 °C -1.7 °C 1016.3 hPa WNW 4.7 km/h 16.1 km/h 89% 0.0 mm 70 W/m2
10:36 -0.1 °C -1.7 °C 1016.3 hPa West 3.2 km/h 11.3 km/h 89% 0.0 mm 81 W/m2
10:41 0 °C -1.6 °C 1016.3 hPa West 4.7 km/h 14.5 km/h 89% 0.0 mm 69 W/m2
10:46 0.1 °C -1.5 °C 1016.3 hPa WNW 1.4 km/h 4.8 km/h 89% 0.0 mm 98 W/m2
10:51 0.2 °C -1.4 °C 1016.3 hPa West 3.2 km/h 9.7 km/h 89% 0.0 mm 120 W/m2
10:56 0.2 °C -1.4 °C 1016.3 hPa WNW 1.4 km/h 6.4 km/h 89% 0.0 mm 111 W/m2
11:01 0.3 °C -1.3 °C 1016.6 hPa WNW 6.4 km/h 12.9 km/h 89% 0.0 mm 97 W/m2
11:06 0.3 °C -1.5 °C 1016.6 hPa WNW 4.7 km/h 9.7 km/h 88% 0.0 mm 111 W/m2
11:11 0.3 °C -1.5 °C 1016.6 hPa WNW 11.1 km/h 11.3 km/h 88% 0.0 mm 105 W/m2
11:16 0.3 °C -1.5 °C 1016.6 hPa WNW 1.4 km/h 12.9 km/h 88% 0.0 mm 113 W/m2
11:21 0.3 °C -1.5 °C 1016.6 hPa WNW 11.1 km/h 14.5 km/h 88% 0.0 mm 137 W/m2
11:26 0.3 °C -1.6 °C 1016.6 hPa WNW 13 km/h 17.7 km/h 87% 0.0 mm 142 W/m2
11:31 0.2 °C -1.7 °C 1016.6 hPa WNW 4.7 km/h 16.1 km/h 87% 0.0 mm 116 W/m2
11:36 0.3 °C -1.5 °C 1016.6 hPa NNW 4.7 km/h 17.7 km/h 88% 0.0 mm 125 W/m2
11:41 0.2 °C -1.7 °C 1016.6 hPa WNW 11.1 km/h 16.1 km/h 87% 0.0 mm 121 W/m2
11:46 0.3 °C -1.5 °C 1016.6 hPa WNW 4.7 km/h 16.1 km/h 88% 0.0 mm 123 W/m2
11:51 0.3 °C -1.5 °C 1016.6 hPa SW 11.1 km/h 12.9 km/h 88% 0.0 mm 162 W/m2
11:56 0.4 °C -1.4 °C 1016.6 hPa WSW 3.2 km/h 16.1 km/h 88% 0.0 mm 169 W/m2
12:01 0.5 °C -1.3 °C 1016.3 hPa West 4.7 km/h 9.7 km/h 88% 0.0 mm 158 W/m2
12:06 0.6 °C -1.3 °C 1016.3 hPa West 9.7 km/h 14.5 km/h 87% 0.0 mm 156 W/m2
12:11 0.6 °C -1.2 °C 1016.3 hPa WNW 14.3 km/h 14.5 km/h 88% 0.0 mm 153 W/m2
12:16 0.6 °C -1.3 °C 1016.3 hPa WNW 13 km/h 16.1 km/h 87% 0.0 mm 158 W/m2
12:21 0.7 °C -1.2 °C 1016.3 hPa West 6.4 km/h 17.7 km/h 87% 0.0 mm 137 W/m2
12:26 0.7 °C -1.2 °C 1016.3 hPa WSW 13 km/h 17.7 km/h 87% 0.0 mm 142 W/m2
12:31 0.7 °C -1.2 °C 1016.3 hPa West 9.7 km/h 12.9 km/h 87% 0.0 mm 174 W/m2
12:36 0.8 °C -1.1 °C 1016.3 hPa WNW 17.7 km/h 17.7 km/h 87% 0.0 mm 206 W/m2
12:41 0.8 °C -1.3 °C 1016.3 hPa West 11.1 km/h 19.3 km/h 86% 0.0 mm 178 W/m2
12:46 0.8 °C -1.3 °C 1016.3 hPa WSW 11.1 km/h 14.5 km/h 86% 0.0 mm 149 W/m2
12:51 0.8 °C -1.3 °C 1015.9 hPa WNW 4.7 km/h 24.1 km/h 86% 0.0 mm 132 W/m2
12:56 0.9 °C -1.2 °C 1016.3 hPa WNW 4.7 km/h 12.9 km/h 86% 0.0 mm 142 W/m2
13:01 0.9 °C -1.2 °C 1016.3 hPa WSW 4.7 km/h 22.5 km/h 86% 0.0 mm 137 W/m2
13:06 1.1 °C -1 °C 1016.3 hPa West 6.4 km/h 14.5 km/h 86% 0.0 mm 130 W/m2
13:11 1.2 °C -0.9 °C 1015.9 hPa West 13 km/h 19.3 km/h 86% 0.0 mm 120 W/m2
13:16 1.2 °C -1 °C 1015.9 hPa WNW 6.4 km/h 9.7 km/h 85% 0.0 mm 98 W/m2
13:21 1.2 °C -1 °C 1015.9 hPa WNW 7.9 km/h 16.1 km/h 85% 0.0 mm 91 W/m2
13:26 1.2 °C -1 °C 1015.9 hPa WNW 6.4 km/h 12.9 km/h 85% 0.0 mm 109 W/m2
13:31 1.3 °C -0.9 °C 1015.9 hPa NW 6.4 km/h 16.1 km/h 85% 0.0 mm 127 W/m2
13:36 1.4 °C -0.8 °C 1015.9 hPa WNW 11.1 km/h 14.5 km/h 85% 0.0 mm 134 W/m2
13:41 1.6 °C -0.6 °C 1015.9 hPa West 4.7 km/h 16.1 km/h 85% 0.0 mm 128 W/m2
13:46 1.7 °C -0.7 °C 1015.9 hPa West 6.4 km/h 11.3 km/h 84% 0.0 mm 134 W/m2
13:51 1.8 °C -0.6 °C 1015.9 hPa WSW 9.7 km/h 14.5 km/h 84% 0.0 mm 137 W/m2
13:56 1.9 °C -0.5 °C 1015.9 hPa WSW 11.1 km/h 14.5 km/h 84% 0.0 mm 130 W/m2
14:01 2 °C -0.6 °C 1015.9 hPa WSW 4.7 km/h 11.3 km/h 83% 0.0 mm 127 W/m2
14:06 2 °C -0.6 °C 1016.3 hPa West 9.7 km/h 14.5 km/h 83% 0.0 mm 123 W/m2
14:11 2.1 °C -0.5 °C 1015.9 hPa WNW 7.9 km/h 16.1 km/h 83% 0.0 mm 121 W/m2
14:16 2.1 °C -0.5 °C 1015.9 hPa West 6.4 km/h 14.5 km/h 83% 0.0 mm 127 W/m2
14:21 2.1 °C -0.5 °C 1015.9 hPa West 14.3 km/h 17.7 km/h 83% 0.0 mm 111 W/m2
14:26 2.1 °C -0.5 °C 1015.9 hPa West 11.1 km/h 16.1 km/h 83% 0.0 mm 91 W/m2
14:31 2.1 °C -0.5 °C 1015.9 hPa West 3.2 km/h 11.3 km/h 83% 0.0 mm 88 W/m2
14:36 2.1 °C -0.5 °C 1015.9 hPa West 9.7 km/h 14.5 km/h 83% 0.0 mm 77 W/m2
14:41 2.1 °C -0.5 °C 1016.3 hPa NW 6.4 km/h 11.3 km/h 83% 0.0 mm 76 W/m2
14:46 2 °C -0.7 °C 1016.3 hPa WNW 4.7 km/h 14.5 km/h 82% 0.0 mm 86 W/m2
14:51 1.9 °C -0.7 °C 1016.3 hPa West 9.7 km/h 11.3 km/h 83% 0.0 mm 91 W/m2
14:56 1.9 °C -0.7 °C 1016.3 hPa West 11.1 km/h 12.9 km/h 83% 0.0 mm 86 W/m2
15:01 1.9 °C -0.5 °C 1016.3 hPa West 6.4 km/h 12.9 km/h 84% 0.0 mm 65 W/m2
15:06 1.9 °C -0.7 °C 1016.3 hPa WNW 13 km/h 14.5 km/h 83% 0.0 mm 47 W/m2
15:11 1.8 °C -0.8 °C 1016.3 hPa WSW 6.4 km/h 16.1 km/h 83% 0.0 mm 40 W/m2
15:16 1.8 °C -0.6 °C 1016.3 hPa WNW 4.7 km/h 9.7 km/h 84% 0.0 mm 46 W/m2
15:21 1.8 °C -0.6 °C 1016.3 hPa WSW 4.7 km/h 16.1 km/h 84% 0.0 mm 47 W/m2
15:26 1.8 °C -0.6 °C 1016.3 hPa WNW 3.2 km/h 11.3 km/h 84% 0.0 mm 46 W/m2
15:31 1.8 °C -0.8 °C 1016.3 hPa WNW 3.2 km/h 11.3 km/h 83% 0.0 mm 39 W/m2
15:37 1.7 °C -0.7 °C 1016.3 hPa Calm   6.4 km/h 84% 0.0 mm 35 W/m2
15:42 1.7 °C -0.7 °C 1016.3 hPa Calm   4.8 km/h 84% 0.0 mm 28 W/m2
15:47 1.7 °C -0.7 °C 1016.3 hPa Calm   6.4 km/h 84% 0.0 mm 26 W/m2
15:52 1.6 °C -0.8 °C 1016.3 hPa WNW 1.4 km/h 6.4 km/h 84% 0.0 mm 26 W/m2
15:57 1.6 °C -0.6 °C 1016.3 hPa SE 3.2 km/h 4.8 km/h 85% 0.0 mm 33 W/m2
16:02 1.5 °C -0.7 °C 1016.6 hPa West 1.4 km/h 3.2 km/h 85% 0.0 mm 40 W/m2
16:07 1.5 °C -0.7 °C 1016.6 hPa Calm   1.6 km/h 85% 0.0 mm 40 W/m2
16:12 1.5 °C -0.7 °C 1016.6 hPa NNW 3.2 km/h 3.2 km/h 85% 0.0 mm 37 W/m2
16:17 1.4 °C -0.8 °C 1016.6 hPa NW 1.4 km/h 9.7 km/h 85% 0.0 mm 19 W/m2
16:22 1.4 °C -0.7 °C 1016.6 hPa WSW 6.4 km/h 8 km/h 86% 0.0 mm 16 W/m2
16:27 1.4 °C -0.8 °C 1016.6 hPa West 6.4 km/h 11.3 km/h 85% 0.0 mm 11 W/m2
16:32 1.4 °C -0.8 °C 1016.9 hPa WNW 1.4 km/h 4.8 km/h 85% 0.0 mm 9 W/m2
16:37 1.4 °C -0.8 °C 1016.9 hPa WSW 6.4 km/h 11.3 km/h 85% 0.0 mm 7 W/m2
16:42 1.3 °C -0.9 °C 1016.9 hPa West 3.2 km/h 4.8 km/h 85% 0.0 mm 5 W/m2
16:47 1.3 °C -0.9 °C 1016.9 hPa West 6.4 km/h 9.7 km/h 85% 0.0 mm 5 W/m2
16:52 1.3 °C -0.9 °C 1016.9 hPa WSW 1.4 km/h 9.7 km/h 85% 0.0 mm 5 W/m2
16:57 1.3 °C -0.8 °C 1016.9 hPa West 6.4 km/h 12.9 km/h 86% 0.0 mm 0 W/m2
17:02 1.3 °C -0.8 °C 1016.9 hPa WNW 4.7 km/h 4.8 km/h 86% 0.0 mm 0 W/m2
17:07 1.3 °C -0.8 °C 1017.3 hPa WSW 4.7 km/h 12.9 km/h 86% 0.0 mm 0 W/m2
17:12 1.3 °C -0.8 °C 1017.3 hPa West 3.2 km/h 11.3 km/h 86% 0.0 mm 0 W/m2
17:17 1.3 °C -0.8 °C 1017.3 hPa West 4.7 km/h 6.4 km/h 86% 0.0 mm 0 W/m2
17:22 1.2 °C -0.9 °C 1017.3 hPa WSW 6.4 km/h 11.3 km/h 86% 0.0 mm 0 W/m2
17:27 1.2 °C -0.9 °C 1017.3 hPa West 9.7 km/h 9.7 km/h 86% 0.0 mm 0 W/m2
17:32 1.2 °C -0.7 °C 1017.3 hPa West 1.4 km/h 6.4 km/h 87% 0.0 mm 0 W/m2
17:37 1.1 °C -0.8 °C 1017.3 hPa WNW 3.2 km/h 8 km/h 87% 0.0 mm 0 W/m2
17:42 1.1 °C -0.8 °C 1017.3 hPa West 4.7 km/h 4.8 km/h 87% 0.0 mm 0 W/m2
17:47 1.1 °C -0.8 °C 1017.3 hPa Calm   3.2 km/h 87% 0.0 mm 0 W/m2
17:52 1.1 °C -0.8 °C 1017.3 hPa WNW 1.4 km/h 9.7 km/h 87% 0.0 mm 0 W/m2
17:57 1 °C -0.9 °C 1017.6 hPa WNW 4.7 km/h 4.8 km/h 87% 0.0 mm 0 W/m2
18:02 0.9 °C -1 °C 1017.6 hPa WNW 4.7 km/h 6.4 km/h 87% 0.0 mm 0 W/m2
18:07 0.9 °C -1 °C 1017.6 hPa Calm   3.2 km/h 87% 0.0 mm 0 W/m2
18:12 0.9 °C -0.9 °C 1017.6 hPa WNW 3.2 km/h 4.8 km/h 88% 0.0 mm 0 W/m2
18:17 0.9 °C -0.9 °C 1017.6 hPa West 1.4 km/h 4.8 km/h 88% 0.0 mm 0 W/m2
18:29 0.9 °C -0.9 °C 1017.6 hPa WNW 3.2 km/h 12.9 km/h 88% 0.0 mm 0 W/m2
18:34 0.9 °C -0.9 °C 1017.6 hPa Calm   1.6 km/h 88% 0.0 mm 0 W/m2
18:39 0.8 °C -1 °C 1018.0 hPa WSW 1.4 km/h 4.8 km/h 88% 0.0 mm 0 W/m2
18:44 0.9 °C -0.9 °C 1018.0 hPa WSW 4.7 km/h 4.8 km/h 88% 0.0 mm 0 W/m2
18:49 0.8 °C -1 °C 1018.0 hPa NW 1.4 km/h 3.2 km/h 88% 0.0 mm 0 W/m2
18:54 0.8 °C -1 °C 1018.0 hPa Calm   1.6 km/h 88% 0.0 mm 0 W/m2
18:59 0.8 °C -1 °C 1018.0 hPa Calm     88% 0.0 mm 0 W/m2
19:04 0.8 °C -1 °C 1018.0 hPa WNW 1.4 km/h 4.8 km/h 88% 0.0 mm 0 W/m2
19:09 0.8 °C -1 °C 1018.0 hPa Calm   6.4 km/h 88% 0.0 mm 0 W/m2
19:14 0.8 °C -1 °C 1018.0 hPa WSW 6.4 km/h 9.7 km/h 88% 0.0 mm 0 W/m2
19:19 0.8 °C -1 °C 1018.0 hPa WSW 4.7 km/h 6.4 km/h 88% 0.0 mm 0 W/m2
19:24 0.8 °C -1 °C 1018.0 hPa NW 11.1 km/h 11.3 km/h 88% 0.0 mm 0 W/m2
19:29 0.9 °C -0.9 °C 1018.0 hPa WNW 1.4 km/h 8 km/h 88% 0.0 mm 0 W/m2
19:34 0.9 °C -0.9 °C 1018.0 hPa West 3.2 km/h 4.8 km/h 88% 0.0 mm 0 W/m2
19:39 0.9 °C -0.9 °C 1018.0 hPa NW 3.2 km/h 9.7 km/h 88% 0.0 mm 0 W/m2
19:44 0.9 °C -0.9 °C 1018.0 hPa WNW 3.2 km/h 9.7 km/h 88% 0.0 mm 0 W/m2
19:49 0.9 °C -0.9 °C 1018.0 hPa WNW 4.7 km/h 8 km/h 88% 0.0 mm 0 W/m2
19:54 0.8 °C -1 °C 1018.0 hPa West 11.1 km/h 11.3 km/h 88% 0.0 mm 0 W/m2
19:59 0.8 °C -0.8 °C 1018.0 hPa West 9.7 km/h 12.9 km/h 89% 0.0 mm 0 W/m2
20:04 0.8 °C -0.8 °C 1018.0 hPa West 9.7 km/h 17.7 km/h 89% 0.0 mm 0 W/m2
20:09 0.8 °C -0.8 °C 1018.0 hPa WNW 7.9 km/h 11.3 km/h 89% 0.0 mm 0 W/m2
20:14 0.8 °C -0.8 °C 1018.0 hPa WNW 4.7 km/h 17.7 km/h 89% 0.0 mm 0 W/m2
20:19 0.9 °C -0.7 °C 1018.0 hPa WNW 4.7 km/h 11.3 km/h 89% 0.0 mm 0 W/m2
20:24 0.9 °C -0.7 °C 1018.3 hPa West 1.4 km/h 11.3 km/h 89% 0.0 mm 0 W/m2
20:29 0.9 °C -0.7 °C 1018.3 hPa West 4.7 km/h 8 km/h 89% 0.0 mm 0 W/m2
20:34 0.9 °C -0.7 °C 1018.3 hPa NW 4.7 km/h 6.4 km/h 89% 0.0 mm 0 W/m2
20:39 0.9 °C -0.7 °C 1018.3 hPa West 4.7 km/h 6.4 km/h 89% 0.0 mm 0 W/m2
20:44 0.9 °C -0.7 °C 1018.3 hPa WNW 3.2 km/h 6.4 km/h 89% 0.0 mm 0 W/m2
20:49 0.9 °C -0.7 °C 1018.3 hPa WSW 1.4 km/h 11.3 km/h 89% 0.0 mm 0 W/m2
20:54 1 °C -0.6 °C 1018.3 hPa WNW 3.2 km/h 4.8 km/h 89% 0.0 mm 0 W/m2
20:59 0.9 °C -0.7 °C 1018.3 hPa NW 3.2 km/h 4.8 km/h 89% 0.0 mm 0 W/m2
21:04 1 °C -0.6 °C 1018.3 hPa WNW 1.4 km/h 6.4 km/h 89% 0.0 mm 0 W/m2
21:09 1 °C -0.5 °C 1018.3 hPa NNW 4.7 km/h 4.8 km/h 90% 0.0 mm 0 W/m2
21:14 1 °C -0.5 °C 1018.3 hPa NW 3.2 km/h 4.8 km/h 90% 0.0 mm 0 W/m2
21:19 1 °C -0.6 °C 1018.3 hPa NW 1.4 km/h 6.4 km/h 89% 0.0 mm 0 W/m2
21:24 1 °C -0.6 °C 1018.3 hPa WSW 4.7 km/h 4.8 km/h 89% 0.0 mm 0 W/m2
21:29 1 °C -0.5 °C 1018.6 hPa WNW 3.2 km/h 12.9 km/h 90% 0.0 mm 0 W/m2
21:34 1 °C -0.5 °C 1018.6 hPa WNW 3.2 km/h 9.7 km/h 90% 0.0 mm 0 W/m2
21:39 0.9 °C -0.6 °C 1018.6 hPa WNW 3.2 km/h 6.4 km/h 90% 0.0 mm 0 W/m2
21:44 0.9 °C -0.6 °C 1018.6 hPa NW 1.4 km/h 9.7 km/h 90% 0.0 mm 0 W/m2
21:49 1 °C -0.5 °C 1018.6 hPa WNW 1.4 km/h 4.8 km/h 90% 0.0 mm 0 W/m2
21:54 1 °C -0.5 °C 1018.6 hPa WSW 4.7 km/h 9.7 km/h 90% 0.0 mm 0 W/m2
21:59 1 °C -0.5 °C 1018.6 hPa WNW 1.4 km/h 4.8 km/h 90% 0.0 mm 0 W/m2
22:04 1 °C -0.5 °C 1019.0 hPa NW 1.4 km/h 6.4 km/h 90% 0.0 mm 0 W/m2
22:09 1 °C -0.5 °C 1018.6 hPa WNW 1.4 km/h 4.8 km/h 90% 0.0 mm 0 W/m2
22:14 1 °C -0.5 °C 1019.0 hPa West 3.2 km/h 3.2 km/h 90% 0.0 mm 0 W/m2
22:19 1 °C -0.3 °C 1019.0 hPa West 1.4 km/h 9.7 km/h 91% 0.0 mm 0 W/m2
22:24 1.1 °C -0.2 °C 1019.0 hPa West 3.2 km/h 6.4 km/h 91% 0.0 mm 0 W/m2
22:29 1.1 °C -0.2 °C 1019.0 hPa West 4.7 km/h 9.7 km/h 91% 0.0 mm 0 W/m2
22:35 1.1 °C -0.2 °C 1019.0 hPa West 3.2 km/h 3.2 km/h 91% 0.0 mm 0 W/m2
22:40 1.1 °C -0.2 °C 1019.0 hPa WNW 3.2 km/h 4.8 km/h 91% 0.0 mm 0 W/m2
22:45 1.1 °C -0.2 °C 1019.0 hPa WNW 1.4 km/h 4.8 km/h 91% 0.0 mm 0 W/m2
22:50 1.2 °C -0.1 °C 1019.0 hPa WNW 3.2 km/h 4.8 km/h 91% 0.0 mm 0 W/m2
22:55 1.2 °C -0.1 °C 1019.0 hPa WNW 1.4 km/h 4.8 km/h 91% 0.0 mm 0 W/m2
23:00 1.2 °C -0.1 °C 1019.0 hPa WNW 3.2 km/h 4.8 km/h 91% 0.0 mm 0 W/m2
23:05 1.2 °C -0.1 °C 1019.0 hPa West 3.2 km/h 3.2 km/h 91% 0.0 mm 0 W/m2
23:10 1.2 °C -0.1 °C 1019.0 hPa West 3.2 km/h 4.8 km/h 91% 0.0 mm 0 W/m2
23:15 1.2 °C -0.1 °C 1019.0 hPa West 3.2 km/h 4.8 km/h 91% 0.0 mm 0 W/m2
23:20 1.2 °C -0.1 °C 1019.0 hPa West 3.2 km/h 4.8 km/h 91% 0.0 mm 0 W/m2
23:25 1.2 °C -0.1 °C 1019.0 hPa WNW 1.4 km/h 3.2 km/h 91% 0.0 mm 0 W/m2
23:30 1.2 °C -0.1 °C 1019.0 hPa West 3.2 km/h 3.2 km/h 91% 0.0 mm 0 W/m2
23:35 1.3 °C 0 °C 1019.0 hPa West 1.4 km/h 3.2 km/h 91% 0.0 mm 0 W/m2
23:40 1.3 °C 0 °C 1019.0 hPa West 3.2 km/h 3.2 km/h 91% 0.0 mm 0 W/m2
23:45 1.3 °C 0 °C 1019.0 hPa West 1.4 km/h 1.6 km/h 91% 0.0 mm 0 W/m2
23:50 1.3 °C 0 °C 1019.0 hPa Calm     91% 0.0 mm 0 W/m2
23:55 1.3 °C 0 °C 1019.0 hPa Calm   1.6 km/h 91% 0.0 mm 0 W/m2
Juneau County Weather
Compliments of Weather Underground - 4 mb